Date String (YYYY-MM-DD hh:mm:ss) UTC,Instrument flags,Ambient pressure (hPa),Sample flow (lpm),Bypass flow (lpm),Sample temperature (°C),Ambient temperature (°C),ASC tube jacket temperature (°C),LED temperature (°C),Box temperature (°C),Sample RH (%),Span deviation,Mass concentration (μg/m³),Mass concentration (μg/m³),Mass concentration (μg/m³)
DateTimeUTC,F1_M11,P_M11,Q1_M11,Q2_M11,T1_M11,T2_M11,T3_M11,T4_M11,T5_M11,U1_M11,ZSPAN_M11,X0_M11,X2_M11,X1_M11
2022-12-03 09:00:00,,0830.9,5.00,0.00,21.3,20.2,00.0,30.1,22.9,07.4,0000.0,0008.43,0002.81,0001.69
2022-12-03 09:01:00,,0831.0,5.01,0.00,21.2,20.0,00.0,30.1,22.9,07.5,0000.0,0008.61,0002.74,0001.67
2022-12-03 09:02:00,,0831.0,5.01,0.00,21.2,19.8,00.0,30.1,22.9,07.5,0000.0,0008.78,0002.67,0001.65
2022-12-03 09:03:00,,0830.9,5.00,0.00,21.2,19.6,00.0,30.1,22.9,07.4,0000.0,0008.22,0002.60,0001.62
2022-12-03 09:04:00,,0830.9,5.01,0.00,21.2,19.6,00.0,30.1,22.8,07.4,0000.0,0008.46,0002.60,0001.60
2022-12-03 09:05:00,,0830.9,5.00,0.00,21.1,19.5,00.0,30.1,22.8,07.3,0000.0,0009.27,0002.59,0001.60
2022-12-03 09:06:00,,0830.9,5.00,0.00,21.1,19.6,00.0,30.1,22.8,07.3,0000.0,0009.27,0002.57,0001.58
2022-12-03 09:07:00,,0831.0,5.01,0.00,21.2,20.7,00.0,30.0,23.0,07.3,0000.0,0008.60,0002.47,0001.56
2022-12-03 09:08:00,,0831.0,5.00,0.00,21.3,21.6,00.0,30.0,23.2,07.2,0000.0,0009.02,0002.45,0001.52
2022-12-03 09:09:00,,0830.9,4.98,0.00,21.4,21.5,00.0,30.1,23.3,07.2,0000.0,0009.44,0002.45,0001.50
2022-12-03 09:10:00,,0830.9,5.00,0.00,21.4,21.0,00.0,30.1,23.2,07.1,0000.0,0008.99,0002.41,0001.49
2022-12-03 09:11:00,,0830.9,5.01,0.00,21.4,20.7,00.0,30.1,23.2,07.1,0000.0,0009.19,0002.43,0001.48
2022-12-03 09:12:00,,0831.0,5.00,0.00,21.4,20.4,00.0,30.2,23.1,07.3,0000.0,0009.11,0002.46,0001.46
2022-12-03 09:13:00,,0831.0,4.99,0.00,21.4,20.1,00.0,30.2,23.1,07.3,0000.0,0008.75,0002.50,0001.46
2022-12-03 09:14:00,,0831.0,5.00,0.00,21.3,19.9,00.0,30.2,23.0,07.3,0000.0,0008.80,0002.56,0001.46
2022-12-03 09:15:00,,0830.9,5.01,0.00,21.3,19.8,00.0,30.2,23.0,07.3,0000.0,0008.61,0002.53,0001.46
2022-12-03 09:16:00,,0830.9,5.00,0.00,21.3,19.6,00.0,30.2,22.9,07.2,0000.0,0007.67,0002.56,0001.45
2022-12-03 09:17:00,,0830.9,5.00,0.00,21.3,19.6,00.0,30.2,22.9,07.2,0000.0,0007.74,0002.59,0001.44
2022-12-03 09:18:00,,0830.9,5.02,0.00,21.3,20.5,00.0,30.1,23.1,07.4,0000.0,0007.81,0002.67,0001.45
2022-12-03 09:19:00,,0830.9,5.00,0.00,21.4,21.6,00.0,30.1,23.3,07.5,0000.0,0007.38,0002.69,0001.48
2022-12-03 09:20:00,,0830.9,5.00,0.00,21.5,21.7,00.0,30.2,23.5,07.4,0000.0,0007.72,0002.75,0001.51
2022-12-03 09:21:00,,0830.9,4.99,0.00,21.5,21.3,00.0,30.2,23.4,07.2,0000.0,0007.83,0002.78,0001.53
2022-12-03 09:22:00,,0830.9,4.99,0.00,21.5,20.9,00.0,30.3,23.3,07.1,0000.0,0007.94,0002.76,0001.54
2022-12-03 09:23:00,,0831.0,5.00,0.00,21.5,20.6,00.0,30.3,23.3,07.3,0000.0,0007.75,0002.69,0001.54
2022-12-03 09:24:00,,0831.0,5.00,0.00,21.5,20.3,00.0,30.3,23.2,07.4,0000.0,0007.89,0002.68,0001.55
2022-12-03 09:25:00,,0831.0,4.99,0.00,21.5,20.1,00.0,30.3,23.1,07.4,0000.0,0007.92,0002.66,0001.55
2022-12-03 09:26:00,,0830.9,5.00,0.00,21.4,19.9,00.0,30.3,23.1,07.4,0000.0,0008.23,0002.71,0001.57
2022-12-03 09:27:00,,0830.9,5.00,0.00,21.4,19.8,00.0,30.3,23.0,07.4,0000.0,0008.63,0002.74,0001.57
2022-12-03 09:28:00,,0830.9,5.00,0.00,21.4,19.7,00.0,30.3,23.0,07.4,0000.0,0008.46,0002.70,0001.58
2022-12-03 09:29:00,,0831.0,5.02,0.00,21.4,20.4,00.0,30.3,23.1,07.4,0000.0,0008.36,0002.64,0001.59
2022-12-03 09:30:00,,0831.0,5.00,0.00,21.5,21.5,00.0,30.2,23.4,07.4,0000.0,0008.50,0002.65,0001.59
2022-12-03 09:31:00,,0831.0,5.00,0.00,21.6,21.9,00.0,30.3,23.6,07.4,0000.0,0008.78,0002.61,0001.58
2022-12-03 09:32:00,,0831.0,5.00,0.00,21.6,21.4,00.0,30.3,23.6,07.4,0000.0,0008.88,0002.61,0001.58
2022-12-03 09:33:00,,0830.9,4.99,0.00,21.6,21.0,00.0,30.4,23.5,07.4,0000.0,0009.21,0002.64,0001.60
2022-12-03 09:34:00,,0830.9,5.01,0.00,21.6,20.7,00.0,30.4,23.4,07.5,0000.0,0009.56,0002.66,0001.61
2022-12-03 09:35:00,,0830.9,5.01,0.00,21.6,20.4,00.0,30.4,23.4,07.4,0000.0,0009.58,0002.74,0001.63
2022-12-03 09:36:00,,0830.9,5.00,0.00,21.6,20.2,00.0,30.4,23.3,07.4,0000.0,0009.66,0002.80,0001.65
2022-12-03 09:37:00,,0830.9,5.00,0.00,21.5,20.0,00.0,30.4,23.2,07.5,0000.0,0010.17,0002.79,0001.65
2022-12-03 09:38:00,,0830.9,5.00,0.00,21.5,19.8,00.0,30.4,23.2,07.5,0000.0,0009.82,0002.75,0001.66
2022-12-03 09:39:00,,0830.9,4.99,0.00,21.5,19.7,00.0,30.4,23.1,07.6,0000.0,0010.35,0002.82,0001.67
2022-12-03 09:40:00,,0830.9,5.01,0.00,21.5,20.1,00.0,30.4,23.2,07.7,0000.0,0010.55,0002.94,0001.67
2022-12-03 09:41:00,,0830.9,5.01,0.00,21.6,21.3,00.0,30.3,23.4,07.7,0000.0,0011.18,0003.09,0001.69
2022-12-03 09:42:00,,0830.9,4.99,0.00,21.7,21.9,00.0,30.3,23.6,07.6,0000.0,0010.70,0003.12,0001.69
2022-12-03 09:43:00,,0830.9,4.99,0.00,21.7,21.5,00.0,30.4,23.6,07.5,0000.0,0011.07,0003.19,0001.70
2022-12-03 09:44:00,,0830.9,4.99,0.00,21.7,21.1,00.0,30.4,23.5,07.6,0000.0,0010.55,0003.23,0001.72
2022-12-03 09:45:00,,0830.9,5.00,0.00,21.7,20.7,00.0,30.5,23.4,07.6,0000.0,0010.58,0003.30,0001.75
2022-12-03 09:46:00,,0830.9,5.00,0.00,21.7,20.5,00.0,30.5,23.4,07.5,0000.0,0010.80,0003.33,0001.77
2022-12-03 09:47:00,,0830.9,5.00,0.00,21.6,20.3,00.0,30.5,23.4,07.5,0000.0,0011.20,0003.36,0001.79
2022-12-03 09:48:00,,0830.9,5.00,0.00,21.6,20.1,00.0,30.5,23.3,07.5,0000.0,0011.85,0003.45,0001.80
2022-12-03 09:49:00,,0830.8,5.00,0.00,21.6,20.0,00.0,30.5,23.3,07.5,0000.0,0012.05,0003.48,0001.82
2022-12-03 09:50:00,,0830.7,5.00,0.00,21.5,19.9,00.0,30.5,23.2,07.5,0000.0,0012.78,0003.53,0001.83
2022-12-03 09:51:00,,0830.8,5.00,0.00,21.5,19.8,00.0,30.5,23.2,07.5,0000.0,0013.31,0003.52,0001.83
2022-12-03 09:52:00,,0830.8,5.01,0.00,21.5,20.0,00.0,30.4,23.2,07.4,0000.0,0013.99,0003.46,0001.81
2022-12-03 09:53:00,,0830.8,5.00,0.00,21.6,21.1,00.0,30.4,23.4,07.4,0000.0,0014.73,0003.49,0001.81
2022-12-03 09:54:00,,0830.8,5.00,0.00,21.7,21.9,00.0,30.4,23.7,07.4,0000.0,0014.17,0003.50,0001.82
2022-12-03 09:55:00,,0830.8,4.99,0.00,21.7,21.8,00.0,30.5,23.7,07.4,0000.0,0014.93,0003.50,0001.81
2022-12-03 09:56:00,,0830.8,4.99,0.00,21.8,21.4,00.0,30.5,23.7,07.3,0000.0,0015.07,0003.50,0001.81
2022-12-03 09:57:00,,0830.9,5.00,0.00,21.8,21.1,00.0,30.5,23.6,07.3,0000.0,0015.23,0003.51,0001.79
2022-12-03 09:58:00,,0830.9,5.00,0.00,21.7,20.8,00.0,30.5,23.5,07.3,0000.0,0014.97,0003.51,0001.78
2022-12-03 09:59:00,,0830.9,5.00,0.00,21.7,20.5,00.0,30.6,23.5,07.3,0000.0,0014.37,0003.48,0001.78
